• Em Portugal
  • Lista de países
  • Para 7 dias
  • Temperatura da água
  • Mapas de satélite
  • Mapa do tempo
  • Widgets de tempo
  • user-avatar
    Iniciar Sessão

    Previsão horária em Kielpin

    Hoje, 19 Agosto, Domingo

    Tempo Temperatura Precipitação Vento Pressão Humidade
    00:00 +18°C° 0 mm 1 m/s 751 mmHg 75%
    01:00 +18°C° 0 mm 1 m/s 751 mmHg 80%
    02:00 +18°C° 0 mm 1 m/s 751 mmHg 82%
    03:00 +18°C° 0 mm 1 m/s 751 mmHg 85%
    04:00 +18°C° 0 mm 1 m/s 750 mmHg 87%
    05:00 +18°C° 0 mm 2 m/s 751 mmHg 82%
    06:00 +19°C° 0 mm 2 m/s 751 mmHg 77%
    07:00 +20°C° 0 mm 2 m/s 751 mmHg 72%
    08:00 +23°C° 0 mm 2 m/s 751 mmHg 63%
    09:00 +24°C° 0 mm 2 m/s 751 mmHg 54%
    10:00 +26°C° 0 mm 3 m/s 751 mmHg 45%
    11:00 +26°C° 0 mm 3 m/s 751 mmHg 43%
    12:00 +27°C° 0 mm 3 m/s 751 mmHg 42%
    13:00 +28°C° 0 mm 3 m/s 751 mmHg 41%
    14:00 +28°C° 0 mm 3 m/s 750 mmHg 42%
    15:00 +28°C° 0 mm 3 m/s 750 mmHg 43%
    16:00 +28°C° 0 mm 2 m/s 750 mmHg 44%
    17:00 +26°C° 0 mm 2 m/s 750 mmHg 50%
    18:00 +25°C° 0 mm 1 m/s 749 mmHg 56%
    19:00 +23°C° 0 mm 1 m/s 749 mmHg 62%
    20:00 +22°C° 0 mm 1 m/s 749 mmHg 63%
    21:00 +22°C° 0 mm 1 m/s 749 mmHg 65%
    22:00 +21°C° 0 mm 1 m/s 748 mmHg 67%
    23:00 +21°C° 0 mm 1 m/s 748 mmHg 66%

    Amanhã, 20 Agosto, Segunda-feira

    Tempo Temperatura Precipitação Vento Pressão Humidade
    00:00 +19°C° 0 mm 2 m/s 748 mmHg 65%
    01:00 +19°C° 0 mm 2 m/s 748 mmHg 64%
    02:00 +19°C° 0 mm 2 m/s 747 mmHg 63%
    03:00 +18°C° 0 mm 2 m/s 747 mmHg 63%
    04:00 +18°C° 0 mm 2 m/s 747 mmHg 62%
    05:00 +19°C° 0 mm 3 m/s 747 mmHg 61%
    06:00 +20°C° 0 mm 3 m/s 747 mmHg 61%
    07:00 +21°C° 0 mm 4 m/s 747 mmHg 60%
    08:00 +22°C° 0 mm 4 m/s 747 mmHg 58%
    09:00 +25°C° 0 mm 5 m/s 747 mmHg 56%
    10:00 +26°C° 0 mm 5 m/s 747 mmHg 54%
    11:00 +26°C° 0,1 mm 5 m/s 746 mmHg 56%
    12:00 +26°C° 0,1 mm 6 m/s 746 mmHg 57%
    13:00 +26°C° 0,1 mm 6 m/s 746 mmHg 59%
    14:00 +25°C° 0,1 mm 5 m/s 746 mmHg 63%
    15:00 +23°C° 0,1 mm 5 m/s 746 mmHg 67%
    16:00 +22°C° 0,1 mm 5 m/s 746 mmHg 71%
    17:00 +21°C° 0,1 mm 5 m/s 746 mmHg 71%
    18:00 +20°C° 0,1 mm 5 m/s 746 mmHg 72%
    19:00 +19°C° 0,1 mm 4 m/s 746 mmHg 72%
    20:00 +18°C° 0 mm 4 m/s 747 mmHg 72%
    21:00 +17°C° 0 mm 4 m/s 747 mmHg 71%
    22:00 +15°C° 0 mm 4 m/s 747 mmHg 71%
    23:00 +15°C° 0 mm 4 m/s 747 mmHg 72%

    Depois de amanhã, 21 Agosto, Terça-feira

    Tempo Temperatura Precipitação Vento Pressão Humidade
    00:00 +15°C° 0 mm 4 m/s 748 mmHg 73%
    01:00 +14°C° 0 mm 4 m/s 748 mmHg 74%
    02:00 +14°C° 0 mm 4 m/s 748 mmHg 76%
    03:00 +14°C° 0 mm 3 m/s 748 mmHg 78%
    04:00 +13°C° 0 mm 3 m/s 749 mmHg 79%
    05:00 +14°C° 0 mm 4 m/s 749 mmHg 76%
    06:00 +15°C° 0 mm 4 m/s 750 mmHg 72%
    07:00 +17°C° 0 mm 4 m/s 750 mmHg 69%
    08:00 +19°C° 0 mm 4 m/s 751 mmHg 62%
    09:00 +20°C° 0 mm 4 m/s 751 mmHg 56%
    10:00 +21°C° 0 mm 4 m/s 751 mmHg 50%
    11:00 +22°C° 0 mm 4 m/s 751 mmHg 47%
    12:00 +23°C° 0 mm 4 m/s 752 mmHg 44%
    13:00 +25°C° 0 mm 3 m/s 752 mmHg 41%
    14:00 +24°C° 0 mm 3 m/s 752 mmHg 41%
    15:00 +24°C° 0 mm 3 m/s 752 mmHg 42%
    16:00 +24°C° 0 mm 3 m/s 752 mmHg 42%
    17:00 +23°C° 0 mm 2 m/s 752 mmHg 49%
    18:00 +20°C° 0 mm 2 m/s 752 mmHg 55%
    19:00 +18°C° 0 mm 2 m/s 752 mmHg 62%
    20:00 +17°C° 0 mm 2 m/s 752 mmHg 66%
    21:00 +16°C° 0 mm 2 m/s 752 mmHg 70%
    22:00 +15°C° 0 mm 1 m/s 752 mmHg 74%
    23:00 +15°C° 0 mm 2 m/s 752 mmHg 76%

    22 Agosto, Quarta-feira

    Tempo Temperatura Precipitação Vento Pressão Humidade
    00:00 +15°C° 0 mm 2 m/s 752 mmHg 78%
    01:00 +14°C° 0 mm 2 m/s 752 mmHg 79%
    02:00 +14°C° 0 mm 2 m/s 752 mmHg 81%
    03:00 +14°C° 0 mm 2 m/s 752 mmHg 82%
    04:00 +13°C° 0 mm 2 m/s 752 mmHg 83%
    05:00 +15°C° 0 mm 2 m/s 752 mmHg 79%
    06:00 +16°C° 0 mm 2 m/s 752 mmHg 75%
    07:00 +17°C° 0 mm 2 m/s 752 mmHg 70%
    08:00 +19°C° 0 mm 2 m/s 752 mmHg 63%
    09:00 +21°C° 0 mm 2 m/s 752 mmHg 56%
    10:00 +24°C° 0 mm 2 m/s 752 mmHg 49%
    11:00 +25°C° 0 mm 2 m/s 752 mmHg 45%
    12:00 +26°C° 0 mm 3 m/s 752 mmHg 42%
    13:00 +27°C° 0 mm 3 m/s 751 mmHg 38%
    14:00 +27°C° 0 mm 3 m/s 751 mmHg 38%
    15:00 +27°C° 0 mm 3 m/s 750 mmHg 38%
    16:00 +28°C° 0 mm 3 m/s 750 mmHg 38%
    17:00 +26°C° 0 mm 2 m/s 750 mmHg 44%
    18:00 +24°C° 0 mm 2 m/s 749 mmHg 50%
    19:00 +23°C° 0 mm 2 m/s 749 mmHg 55%
    20:00 +21°C° 0 mm 2 m/s 749 mmHg 57%
    21:00 +20°C° 0 mm 2 m/s 749 mmHg 58%
    22:00 +20°C° 0 mm 2 m/s 749 mmHg 60%
    23:00 +20°C° 0 mm 3 m/s 749 mmHg 60%

    23 Agosto, Quinta-feira

    Tempo Temperatura Precipitação Vento Pressão Humidade
    00:00 +20°C° 0 mm 3 m/s 749 mmHg 59%
    01:00 +19°C° 0 mm 3 m/s 748 mmHg 59%
    02:00 +19°C° 0 mm 3 m/s 748 mmHg 61%
    03:00 +19°C° 0 mm 2 m/s 748 mmHg 62%
    04:00 +18°C° 0 mm 2 m/s 748 mmHg 63%
    05:00 +19°C° 0 mm 2 m/s 748 mmHg 63%
    06:00 +19°C° 0 mm 2 m/s 747 mmHg 63%
    07:00 +20°C° 0 mm 2 m/s 747 mmHg 63%
    08:00 +20°C° 0 mm 2 m/s 747 mmHg 62%
    09:00 +21°C° 0 mm 2 m/s 747 mmHg 61%
    10:00 +23°C° 0 mm 2 m/s 747 mmHg 60%
    11:00 +24°C° 0 mm 2 m/s 747 mmHg 55%
    12:00 +26°C° 0 mm 3 m/s 747 mmHg 51%
    13:00 +28°C° 0 mm 3 m/s 746 mmHg 46%
    14:00 +28°C° 0 mm 3 m/s 746 mmHg 47%
    15:00 +28°C° 0 mm 2 m/s 745 mmHg 48%
    16:00 +28°C° 0 mm 2 m/s 745 mmHg 48%
    17:00 +26°C° 0 mm 2 m/s 745 mmHg 53%
    18:00 +25°C° 0 mm 2 m/s 744 mmHg 57%
    19:00 +24°C° 0 mm 1 m/s 744 mmHg 61%
    20:00 +23°C° 0 mm 2 m/s 744 mmHg 63%
    21:00 +23°C° 0 mm 2 m/s 744 mmHg 65%
    22:00 +21°C° 0 mm 2 m/s 743 mmHg 67%
    23:00 +21°C° 0 mm 2 m/s 743 mmHg 66%

    24 Agosto, Sexta-feira

    Tempo Temperatura Precipitação Vento Pressão Humidade
    00:00 +21°C° 0 mm 3 m/s 743 mmHg 66%
    01:00 +21°C° 0 mm 3 m/s 742 mmHg 65%
    02:00 +21°C° 0 mm 3 m/s 742 mmHg 63%
    03:00 +21°C° 0 mm 3 m/s 742 mmHg 61%
    04:00 +21°C° 0 mm 3 m/s 741 mmHg 58%
    05:00 +21°C° 0,3 mm 3 m/s 741 mmHg 60%
    06:00 +21°C° 0,3 mm 3 m/s 741 mmHg 61%
    07:00 +22°C° 0,3 mm 3 m/s 740 mmHg 63%
    08:00 +24°C° 0,7 mm 3 m/s 740 mmHg 62%
    09:00 +25°C° 0,7 mm 3 m/s 740 mmHg 61%
    10:00 +26°C° 0,7 mm 3 m/s 740 mmHg 60%
    11:00 +27°C° 0,8 mm 3 m/s 740 mmHg 59%
    12:00 +28°C° 0,8 mm 3 m/s 739 mmHg 57%
    13:00 +28°C° 0,8 mm 4 m/s 739 mmHg 55%
    14:00 +27°C° 1,3 mm 4 m/s 739 mmHg 62%
    15:00 +25°C° 1,3 mm 4 m/s 739 mmHg 69%
    16:00 +23°C° 1,3 mm 4 m/s 739 mmHg 77%
    17:00 +21°C° 2,4 mm 4 m/s 739 mmHg 81%
    18:00 +19°C° 2,4 mm 4 m/s 740 mmHg 84%
    19:00 +17°C° 2,4 mm 4 m/s 740 mmHg 88%
    20:00 +15°C° 0,2 mm 4 m/s 741 mmHg 89%
    21:00 +15°C° 0,2 mm 4 m/s 741 mmHg 89%
    22:00 +14°C° 0,2 mm 3 m/s 742 mmHg 90%
    23:00 +14°C° 0 mm 3 m/s 742 mmHg 91%
    Mostrar mais